When you browse on this site, cookies collect data to enhance your experience and personalize the content and advertising you see.
Visit our Privacy Policy to learn more. By continuing to use the site, you agree to this use of cookies and data.
  • Em Portugal
  • Lista de países
  • Para 7 dias
  • Temperatura da água
  • Mapas de satélite
  • Mapa do tempo
  • Widgets de tempo
  • user-avatar
    Iniciar Sessão

    Previsão horária em Dovsk

    Hoje, 22 Abril, Segunda-feira

    Tempo Temperatura Precipitação Vento Pressão Humidade
    00:00 +9°C° 0 mm 2 m/s 754 mmHg 61%
    01:00 +9°C° 0 mm 2 m/s 754 mmHg 60%
    02:00 +9°C° 0 mm 2 m/s 754 mmHg 60%
    03:00 +9°C° 0 mm 2 m/s 755 mmHg 59%
    04:00 +9°C° 0 mm 2 m/s 755 mmHg 59%
    05:00 +9°C° 0 mm 2 m/s 755 mmHg 58%
    06:00 +10°C° 0 mm 2 m/s 755 mmHg 55%
    07:00 +12°C° 0 mm 2 m/s 756 mmHg 52%
    08:00 +13°C° 0 mm 2 m/s 756 mmHg 50%
    09:00 +13°C° 0 mm 3 m/s 756 mmHg 43%
    10:00 +14°C° 0 mm 3 m/s 756 mmHg 37%
    11:00 +17°C° 0 mm 4 m/s 756 mmHg 30%
    12:00 +17°C° 0 mm 3 m/s 756 mmHg 31%
    13:00 +17°C° 0 mm 3 m/s 756 mmHg 31%
    14:00 +17°C° 0 mm 3 m/s 756 mmHg 31%
    15:00 +17°C° 0 mm 3 m/s 756 mmHg 33%
    16:00 +16°C° 0 mm 2 m/s 756 mmHg 34%
    17:00 +16°C° 0 mm 2 m/s 756 mmHg 36%
    18:00 +15°C° 0 mm 2 m/s 756 mmHg 39%
    19:00 +13°C° 0 mm 1 m/s 756 mmHg 42%
    20:00 +12°C° 0 mm 1 m/s 756 mmHg 44%
    21:00 +11°C° 0 mm 1 m/s 757 mmHg 46%
    22:00 +10°C° 0 mm 0 m/s 757 mmHg 47%
    23:00 +9°C° 0 mm 0 m/s 757 mmHg 49%

    Amanhã, 23 Abril, Terça-feira

    Tempo Temperatura Precipitação Vento Pressão Humidade
    00:00 +8°C° 0 mm 0 m/s 757 mmHg 49%
    01:00 +8°C° 0 mm 0 m/s 757 mmHg 50%
    02:00 +9°C° 0 mm 1 m/s 758 mmHg 51%
    03:00 +9°C° 0 mm 1 m/s 758 mmHg 51%
    04:00 +9°C° 0 mm 1 m/s 758 mmHg 51%
    05:00 +10°C° 0 mm 1 m/s 758 mmHg 52%
    06:00 +11°C° 0 mm 1 m/s 758 mmHg 51%
    07:00 +12°C° 0 mm 1 m/s 758 mmHg 50%
    08:00 +13°C° 0 mm 1 m/s 759 mmHg 49%
    09:00 +15°C° 0 mm 1 m/s 759 mmHg 44%
    10:00 +16°C° 0 mm 0 m/s 759 mmHg 39%
    11:00 +17°C° 0 mm 0 m/s 759 mmHg 34%
    12:00 +19°C° 0 mm 1 m/s 758 mmHg 33%
    13:00 +19°C° 0 mm 1 m/s 758 mmHg 33%
    14:00 +19°C° 0 mm 1 m/s 758 mmHg 33%
    15:00 +18°C° 0 mm 1 m/s 758 mmHg 35%
    16:00 +18°C° 0 mm 1 m/s 757 mmHg 37%
    17:00 +18°C° 0 mm 1 m/s 757 mmHg 39%
    18:00 +16°C° 0 mm 1 m/s 757 mmHg 43%
    19:00 +14°C° 0 mm 1 m/s 757 mmHg 47%
    20:00 +12°C° 0 mm 1 m/s 757 mmHg 50%
    21:00 +12°C° 0 mm 1 m/s 757 mmHg 52%
    22:00 +11°C° 0 mm 1 m/s 758 mmHg 54%
    23:00 +10°C° 0 mm 1 m/s 758 mmHg 56%

    Depois de amanhã, 24 Abril, Quarta-feira

    Tempo Temperatura Precipitação Vento Pressão Humidade
    00:00 +10°C° 0 mm 1 m/s 758 mmHg 57%
    01:00 +10°C° 0 mm 1 m/s 758 mmHg 58%
    02:00 +9°C° 0 mm 1 m/s 758 mmHg 59%
    03:00 +9°C° 0 mm 1 m/s 758 mmHg 60%
    04:00 +9°C° 0 mm 1 m/s 758 mmHg 61%
    05:00 +8°C° 0 mm 1 m/s 758 mmHg 62%
    06:00 +10°C° 0 mm 1 m/s 758 mmHg 58%
    07:00 +12°C° 0 mm 2 m/s 758 mmHg 53%
    08:00 +14°C° 0 mm 2 m/s 758 mmHg 49%
    09:00 +16°C° 0 mm 2 m/s 758 mmHg 44%
    10:00 +17°C° 0 mm 3 m/s 758 mmHg 39%
    11:00 +18°C° 0 mm 3 m/s 758 mmHg 34%
    12:00 +19°C° 0 mm 3 m/s 758 mmHg 33%
    13:00 +19°C° 0 mm 3 m/s 758 mmHg 33%
    14:00 +20°C° 0 mm 3 m/s 757 mmHg 32%
    15:00 +20°C° 0 mm 3 m/s 757 mmHg 34%
    16:00 +19°C° 0 mm 3 m/s 757 mmHg 35%
    17:00 +19°C° 0 mm 3 m/s 756 mmHg 37%
    18:00 +17°C° 0 mm 3 m/s 756 mmHg 43%
    19:00 +15°C° 0 mm 2 m/s 756 mmHg 48%
    20:00 +13°C° 0 mm 2 m/s 756 mmHg 54%
    21:00 +13°C° 0 mm 2 m/s 757 mmHg 55%
    22:00 +12°C° 0 mm 2 m/s 757 mmHg 57%
    23:00 +12°C° 0 mm 2 m/s 757 mmHg 59%

    25 Abril, Quinta-feira

    Tempo Temperatura Precipitação Vento Pressão Humidade
    00:00 +10°C° 0 mm 2 m/s 757 mmHg 60%
    01:00 +10°C° 0 mm 2 m/s 757 mmHg 61%
    02:00 +9°C° 0 mm 2 m/s 757 mmHg 63%
    03:00 +9°C° 0 mm 2 m/s 757 mmHg 64%
    04:00 +10°C° 0 mm 1 m/s 757 mmHg 65%
    05:00 +9°C° 0 mm 1 m/s 757 mmHg 66%
    06:00 +10°C° 0 mm 2 m/s 757 mmHg 61%
    07:00 +13°C° 0 mm 2 m/s 757 mmHg 57%
    08:00 +15°C° 0 mm 2 m/s 757 mmHg 52%
    09:00 +16°C° 0 mm 3 m/s 757 mmHg 47%
    10:00 +18°C° 0 mm 3 m/s 757 mmHg 43%
    11:00 +19°C° 0 mm 4 m/s 757 mmHg 38%
    12:00 +20°C° 0 mm 4 m/s 757 mmHg 37%
    13:00 +20°C° 0 mm 4 m/s 756 mmHg 36%
    14:00 +21°C° 0 mm 4 m/s 756 mmHg 35%
    15:00 +20°C° 0 mm 4 m/s 756 mmHg 36%
    16:00 +20°C° 0 mm 4 m/s 755 mmHg 38%
    17:00 +20°C° 0 mm 4 m/s 755 mmHg 39%
    18:00 +18°C° 0 mm 3 m/s 755 mmHg 44%
    19:00 +16°C° 0 mm 3 m/s 755 mmHg 50%
    20:00 +13°C° 0 mm 3 m/s 755 mmHg 56%
    21:00 +13°C° 0 mm 3 m/s 755 mmHg 57%
    22:00 +12°C° 0 mm 3 m/s 755 mmHg 58%
    23:00 +11°C° 0 mm 3 m/s 755 mmHg 60%

    26 Abril, Sexta-feira

    Tempo Temperatura Precipitação Vento Pressão Humidade
    00:00 +11°C° 0 mm 3 m/s 755 mmHg 61%
    01:00 +10°C° 0 mm 3 m/s 755 mmHg 63%
    02:00 +10°C° 0 mm 2 m/s 754 mmHg 65%
    03:00 +10°C° 0 mm 2 m/s 754 mmHg 66%
    04:00 +9°C° 0 mm 3 m/s 754 mmHg 68%
    05:00 +9°C° 0 mm 3 m/s 754 mmHg 69%
    06:00 +11°C° 0 mm 3 m/s 754 mmHg 65%
    07:00 +13°C° 0 mm 3 m/s 753 mmHg 61%
    08:00 +15°C° 0 mm 4 m/s 753 mmHg 57%
    09:00 +16°C° 0 mm 5 m/s 753 mmHg 51%
    10:00 +19°C° 0 mm 5 m/s 753 mmHg 46%
    11:00 +20°C° 0 mm 6 m/s 752 mmHg 40%
    12:00 +21°C° 0 mm 6 m/s 752 mmHg 39%
    13:00 +21°C° 0 mm 6 m/s 752 mmHg 38%
    14:00 +22°C° 0 mm 6 m/s 751 mmHg 36%
    15:00 +22°C° 0 mm 5 m/s 751 mmHg 38%
    16:00 +21°C° 0 mm 5 m/s 750 mmHg 39%
    17:00 +21°C° 0 mm 4 m/s 750 mmHg 40%
    18:00 +19°C° 0 mm 4 m/s 750 mmHg 45%
    19:00 +17°C° 0 mm 3 m/s 750 mmHg 50%
    20:00 +14°C° 0 mm 3 m/s 750 mmHg 55%
    21:00 +14°C° 0 mm 3 m/s 750 mmHg 56%
    22:00 +13°C° 0 mm 3 m/s 749 mmHg 57%
    23:00 +12°C° 0 mm 3 m/s 749 mmHg 58%

    27 Abril, Sábado

    Tempo Temperatura Precipitação Vento Pressão Humidade
    00:00 +12°C° 0 mm 3 m/s 749 mmHg 59%
    01:00 +11°C° 0 mm 3 m/s 749 mmHg 61%
    02:00 +11°C° 0 mm 3 m/s 749 mmHg 62%
    03:00 +11°C° 0 mm 3 m/s 749 mmHg 65%
    04:00 +10°C° 0 mm 3 m/s 749 mmHg 67%
    05:00 +10°C° 0 mm 3 m/s 749 mmHg 70%
    06:00 +12°C° 0 mm 4 m/s 749 mmHg 66%
    07:00 +14°C° 0 mm 4 m/s 749 mmHg 61%
    08:00 +15°C° 0 mm 4 m/s 749 mmHg 57%
    09:00 +17°C° 0 mm 5 m/s 749 mmHg 51%
    10:00 +20°C° 0 mm 6 m/s 749 mmHg 45%
    11:00 +22°C° 0 mm 6 m/s 749 mmHg 40%
    12:00 +22°C° 0 mm 6 m/s 749 mmHg 38%
    13:00 +23°C° 0 mm 6 m/s 749 mmHg 37%
    14:00 +24°C° 0 mm 6 m/s 748 mmHg 35%
    15:00 +23°C° 0 mm 5 m/s 748 mmHg 37%
    16:00 +23°C° 0 mm 5 m/s 748 mmHg 39%
    17:00 +23°C° 0 mm 4 m/s 748 mmHg 41%
    18:00 +21°C° 0 mm 4 m/s 748 mmHg 47%
    19:00 +19°C° 0 mm 3 m/s 748 mmHg 53%
    20:00 +17°C° 0 mm 3 m/s 747 mmHg 59%
    21:00 +16°C° 0 mm 3 m/s 747 mmHg 61%
    22:00 +14°C° 0 mm 3 m/s 747 mmHg 62%
    23:00 +14°C° 0 mm 3 m/s 747 mmHg 64%
    Mostrar mais